Weather History for KGED - December, 2012

Change the Weather History Date:

Saturday, December 8, 2012

  Actual Average Record
Temperature  
Mean Temperature 53 °F 41 °F  
Max Temperature 55 °F 50 °F 70 °F (1966)
Min Temperature 50 °F 32 °F 10 °F (1954)
Degree Days  
Heating Degree Days 12 24  
Month to date heating degree days 121 180  
Since 1 July heating degree days 942 964  
Cooling Degree Days 0 0  
Month to date cooling degree days 0 0  
Year to date cooling degree days 1616 1196  
Growing Degree Days 2 (Base 50)    
Moisture  
Dew Point 51 °F    
Average Humidity 95    
Maximum Humidity 100    
Minimum Humidity 89    
Precipitation  
Precipitation 0.12 in 0.11 in 1.12 in (1957)
Month to date precipitation 0.53 0.94  
Year to date precipitation 33.54 41.42  
Sea Level Pressure  
Sea Level Pressure 29.95 in    
Wind  
Wind Speed 4 mph (SW)    
Max Wind Speed 8 mph    
Max Gust Speed 12 mph    
Visibility 4 miles    
Events Fog , Rain    
T = Trace of Precipitation, MM = Missing Value Source: NWS Daily Summary

Daily Weather History Graph

Daily Weather History Graph

Search for Another Location

Airport or City:

Trip Planner

Search our weather history database for the weather conditions in past years. The results will help you decide how hot, cold, wet, or windy it might be!

Date:

Astronomy

Dec. 08, 2012 Rise Set
Actual Time 7:07 AM EST 4:39 PM EST
Civil Twilight 6:37 AM EST 5:09 PM EST
Nautical Twilight 6:04 AM EST 5:42 PM EST
Astronomical Twilight 5:32 AM EST 6:14 PM EST
Moon 1:32 AM EST (12/8) 1:06 PM EST (12/8)
Length of Visible Light 10h 31m
Length of Day
9h 32m
Waning Crescent, 28% of the Moon is Illuminated
Dec 8
Waning Crescent
Dec 13
New
Dec 20
First Quarter
Dec 28
Full
Jan 4
Last Quarter

Hourly Weather History & Observations

Time (EST) Temp. Dew Point Humidity Pressure Visibility Wind Dir Wind Speed Gust Speed Precip Events Conditions
12:03 AM 53.6 °F 51.8 °F 94% 29.97 in 4.0 mi Calm Calm - N/A Rain Rain
12:11 AM 53.6 °F 51.8 °F 94% 29.96 in 6.0 mi East 5.8 mph - N/A Rain Light Rain
12:54 AM 54.0 °F 52.0 °F 93% 29.96 in 10.0 mi Calm Calm - N/A   Overcast
1:27 AM 53.6 °F 53.6 °F 100% 29.96 in 2.5 mi West 3.5 mph - N/A Rain Heavy Rain
1:35 AM 53.6 °F 51.8 °F 94% 29.96 in 1.8 mi WSW 3.5 mph - N/A Rain Rain
1:38 AM 53.6 °F 51.8 °F 94% 29.96 in 2.0 mi WSW 3.5 mph - N/A Rain Light Rain
1:46 AM 53.6 °F 51.8 °F 94% 29.95 in 8.0 mi Calm Calm - N/A   Overcast
1:54 AM 54.0 °F 52.0 °F 93% 29.95 in 7.0 mi Calm Calm - N/A Rain Light Rain
1:58 AM 53.6 °F 51.8 °F 94% 29.95 in 6.0 mi Calm Calm - N/A Rain Light Rain
2:54 AM 53.1 °F 51.1 °F 93% 29.95 in 5.0 mi Calm Calm - N/A Rain Light Rain
3:52 AM 53.6 °F 51.8 °F 94% 29.94 in 4.0 mi Calm Calm - N/A   Overcast
3:54 AM 53.1 °F 51.1 °F 93% 29.94 in 4.0 mi Calm Calm - N/A   Overcast
4:05 AM 53.6 °F 51.8 °F 94% 29.93 in 5.0 mi Calm Calm - N/A   Overcast
4:19 AM 53.6 °F 51.8 °F 94% 29.93 in 8.0 mi Calm Calm - N/A   Overcast
4:54 AM 52.0 °F 51.1 °F 97% 29.93 in 5.0 mi Calm Calm - N/A   Overcast
5:29 AM 51.8 °F 51.8 °F 100% 29.92 in 6.0 mi Calm Calm - N/A   Overcast
5:54 AM 52.0 °F 51.1 °F 97% 29.93 in 5.0 mi Calm Calm - N/A   Overcast
6:38 AM 51.8 °F 51.8 °F 100% 29.94 in 4.0 mi SSW 3.5 mph - N/A   Overcast
6:54 AM 52.0 °F 51.1 °F 97% 29.94 in 4.0 mi SSW 3.5 mph - N/A   Overcast
7:17 AM 51.8 °F 51.8 °F 100% 29.93 in 2.5 mi SW 3.5 mph - N/A   Overcast
7:31 AM 53.6 °F 51.8 °F 94% 29.94 in 1.8 mi WSW 3.5 mph - N/A   Overcast
7:54 AM 53.1 °F 51.1 °F 93% 29.95 in 0.8 mi Calm Calm - N/A   Overcast
8:54 AM 53.1 °F 52.0 °F 96% 29.96 in 0.8 mi WSW 4.6 mph - N/A   Overcast
8:58 AM 53.6 °F 51.8 °F 94% 29.96 in 1.2 mi Variable 4.6 mph - N/A   Overcast
9:07 AM 53.6 °F 51.8 °F 94% 29.95 in 3.0 mi Calm Calm - N/A   Overcast
9:54 AM 53.1 °F 51.1 °F 93% 29.96 in 7.0 mi West 6.9 mph - N/A   Overcast
10:54 AM 54.0 °F 51.1 °F 90% 29.95 in 4.0 mi SW 6.9 mph - N/A   Overcast
11:54 AM 53.1 °F 51.1 °F 93% 29.94 in 6.0 mi SW 5.8 mph - N/A   Overcast
12:54 PM 54.0 °F 51.1 °F 90% 29.94 in 6.0 mi WSW 6.9 mph - N/A   Overcast
1:54 PM 54.0 °F 51.1 °F 90% 29.92 in 7.0 mi SSW 6.9 mph - N/A   Overcast
2:54 PM 54.0 °F 50.0 °F 86% 29.92 in 6.0 mi WSW 5.8 mph - N/A   Overcast
3:35 PM 53.6 °F 50.0 °F 88% 29.94 in 6.0 mi West 3.5 mph 80.6 mph N/A   Overcast
3:54 PM 53.1 °F 50.0 °F 89% 29.94 in 5.0 mi SW 6.9 mph - N/A   Overcast
4:36 PM 51.8 °F 50.0 °F 94% 29.94 in 3.0 mi SW 6.9 mph - N/A   Overcast
4:54 PM 52.0 °F 50.0 °F 93% 29.95 in 4.0 mi SW 5.8 mph - N/A   Overcast
5:31 PM 51.8 °F 50.0 °F 94% 29.95 in 2.0 mi SSW 4.6 mph - N/A   Overcast
5:54 PM 52.0 °F 50.0 °F 93% 29.97 in 1.2 mi WSW 4.6 mph - N/A   Overcast
5:57 PM 51.8 °F 50.0 °F 94% 29.97 in 0.8 mi SW 4.6 mph - N/A   Overcast
6:54 PM 51.1 °F 50.0 °F 96% 29.99 in 0.2 mi SSW 6.9 mph - N/A Fog Fog
7:54 PM 51.1 °F 50.0 °F 96% 29.99 in 0.2 mi SSW 5.8 mph - N/A Fog Fog
8:54 PM 50.0 °F 48.9 °F 96% 30.00 in 0.2 mi SSW 3.5 mph - N/A Fog Fog
10:54 PM 50.0 °F 48.9 °F 96% 30.02 in 0.2 mi South 3.5 mph - N/A Fog Fog
11:54 PM 50.0 °F 48.9 °F 96% 30.04 in 0.2 mi Calm Calm - N/A Fog Fog